Flag for India Weather past 2 weeks in Chittorgarh, Rajasthan, India

Now
81 °F

Fog.


Feels Like: 85 °F
Forecast: 82 / 96 °F
Wind: 5 mph from Southwest

Location: Jaipur / Sanganer

Current Time: Jul 2, 2015 at 12:46:55 AM

Latest Report: Jul 2, 2015 at 12:00 AM


Visibility: 1 mi

Pressure: 29.71 "Hg

Humidity: 79%

Dew point: 73 °F

Location of ChittorgarhLocation

Historic Weather in Chittorgarh — Graph

°F

Chittorgarh temperature yesterday

Maximum temperature yesterday: 95 °F (at 2:00 PM)
Minimum temperature yesterday: 77 °F (at 12:00 AM)
Average temperature yesterday: 85 °F

Past Weeks' High & Low Weather Summary

 TemperatureHumidityPressure
High106 °F (Jun 19, 12:30 PM)100% (Jun 25, 3:00 AM)29.77 "Hg (Jun 25, 3:00 AM)
Low75 °F (Jun 29, 9:00 PM)20% (Jun 19, 5:00 PM)29.39 "Hg (Jun 22, 5:30 PM)
Average90 °F56%29.55 "Hg
* Reported Midnight between Jun 16 and Jun 17 — Jul 1 11:30 PM, Chittorgarh, Weather by CustomWeather, © 2015

Note: Actual official high and low records may vary slightly from our data, if they occured in-between our weather recording intervals... More about our weather records

Advertising

Chittorgarh weather history for previous 24 hours

 ConditionsComfort  
Time TempWeatherWind HumidityBarometerVisibility
11:30 PM
Wed, Jul 1
81 °FFog.6 mph79%29.71 "Hg1 mi
11:00 PM82 °FFog.5 mph70%29.71 "Hg1 mi
10:00 PM82 °FFog.3 mph70%29.71 "Hg1 mi
9:00 PM81 °FFog.1 mph84%29.74 "Hg1 mi
8:30 PM81 °FFog.9 mph79%29.71 "Hg1 mi
8:00 PM84 °FFog.7 mph70%29.71 "Hg1 mi
6:00 PM88 °FBroken clouds.16 mph59%29.65 "Hg2 mi
5:00 PM95 °FScattered clouds.12 mph50%29.62 "Hg2 mi
4:00 PM95 °FScattered clouds.9 mph50%29.62 "Hg2 mi
3:00 PM95 °FScattered clouds.12 mph50%29.65 "Hg2 mi
2:00 PM95 °FScattered clouds.12 mph53%29.68 "Hg2 mi
1:00 PM93 °FHaze.13 mph53%29.71 "Hg1 mi
12:30 PM91 °FHaze.13 mph56%29.71 "Hg1 mi
12:00 PM91 °FScattered clouds.13 mph63%29.71 "Hg1 mi
11:00 AM88 °FHaze.12 mph70%29.74 "Hg1 mi
10:30 AM88 °FHaze.10 mph70%29.74 "Hg1 mi
10:00 AM86 °FHaze.10 mph70%29.74 "Hg1 mi
9:00 AM84 °FHaze.6 mph79%29.74 "Hg1 mi
8:00 AM81 °FFog.5 mph84%29.71 "Hg1 mi
7:00 AM79 °FFog.No wind94%29.71 "Hg1 mi
6:00 AM77 °FFog.No wind94%29.68 "Hg1 mi
5:30 AM77 °FFog.No wind94%29.65 "Hg1 mi
1:00 AM77 °FFog.5 mph94%29.71 "Hg1 mi
12:00 AM77 °FFog.5 mph94%29.71 "Hg1 mi
Weather by CustomWeather, © 2015

See weather overviewHow to use our weather pages